User: anonymous   Login
Location: Saint-Maurice-d�Ard�che
(44.5216°N, 4.4002°E)
Time: 12:16:36
(UTC+00:00)
Language:

Resurs 01 Rocket - Orbit

View from above orbital plane
View from above orbital plane
View from above satellite
View from above satellite

Ground track
Ground track

The orbit data is extracted from the following two-line orbital elements,

1 23343U 94074B   20190.94219693 +.00000005 +00000-0 +80389-5 0  9992
2 23343 097.9974 243.7516 0008291 083.4301 089.8430 14.76828571381585
Epoch (UTC): 08 July 2020 22:36:45
Eccentricity: 0.0008291
inclination: 97.9974°
perigee height: 633 km
apogee height: 645 km
right ascension of ascending node: 243.7516°
argument of perigee: 83.4301°
revolutions per day: 14.76828571
mean anomaly at epoch: 89.8430°
orbit number at epoch: 38158

The dashed part of the orbit path shows where the satellite is in the earth's shadow,  

DLR